カタログに戻る

COSMOS 2580

運用中ナビゲーションLEO
NORAD 62216·PAYLOAD·🇷🇺 Russia

打ち上げ Dec 4, 2024 から Plesetsk Cosmodrome

Loading…

次のパス (今後24時間)

TLE

最新Source: Space-Track

元期: Sep 14, 2026, 21:22 UTC

1 62216U 24230A   26257.89064924 -.00000033  00000-0  30147-4 0  9998
2 62216  67.1477 192.8161 0005463 265.7863  94.2597 13.96677237 90662

AllMySatでCOSMOS 2580をリアルタイム追跡

Download on the App Store